Date String (YYYY-MM-DD hh:mm:ss) UTC,Instrument flags,Ambient pressure (hPa),Sample flow (lpm),Bypass flow (lpm),Sample temperature (°C),Ambient temperature (°C),ASC tube jacket temperature (°C),LED temperature (°C),Box temperature (°C),Sample RH (%),Span deviation,Mass concentration (μg/m³),Mass concentration (μg/m³),Mass concentration (μg/m³)
DateTimeUTC,F1_M11,P_M11,Q1_M11,Q2_M11,T1_M11,T2_M11,T3_M11,T4_M11,T5_M11,U1_M11,ZSPAN_M11,X2_M11,X0_M11,X1_M11
2022-11-23 21:00:00,,0819.5,4.99,0.00,21.6,20.2,00.0,30.6,23.2,08.4,0000.0,0001.12,0001.84,0000.91
2022-11-23 21:01:00,,0819.5,5.01,0.00,21.6,20.1,00.0,30.6,23.3,09.1,0000.0,0001.12,0001.87,0000.91
2022-11-23 21:02:00,,0819.5,5.00,0.00,21.6,20.2,00.0,30.6,23.3,08.8,0000.0,0001.10,0002.25,0000.89
2022-11-23 21:03:00,,0819.6,4.98,0.00,21.6,20.1,00.0,30.6,23.2,08.4,0000.0,0001.08,0002.46,0000.87
2022-11-23 21:04:00,,0819.5,5.00,0.00,21.6,20.1,00.0,30.6,23.2,08.5,0000.0,0001.04,0002.42,0000.84
2022-11-23 21:05:00,,0819.6,5.01,0.00,21.6,20.1,00.0,30.6,23.2,09.3,0000.0,0001.03,0002.29,0000.82
2022-11-23 21:06:00,,0819.5,4.98,0.00,21.6,20.1,00.0,30.6,23.3,09.0,0000.0,0001.04,0002.27,0000.81
2022-11-23 21:07:00,,0819.5,5.02,0.00,21.6,20.2,00.0,30.6,23.2,09.2,0000.0,0001.04,0002.28,0000.81
2022-11-23 21:08:00,,0819.6,4.99,0.00,21.6,20.2,00.0,30.6,23.4,08.6,0000.0,0000.98,0002.14,0000.79
2022-11-23 21:09:00,,0819.7,5.00,0.00,21.7,21.0,00.0,30.5,23.6,08.9,0000.0,0000.94,0002.08,0000.77
2022-11-23 21:10:00,,0819.5,4.99,0.00,21.8,21.8,00.0,30.5,23.9,08.8,0000.0,0000.89,0001.87,0000.75
2022-11-23 21:11:00,,0819.6,4.99,0.00,21.9,21.8,00.0,30.6,24.0,08.1,0000.0,0000.88,0001.85,0000.74
2022-11-23 21:12:00,,0819.6,5.00,0.00,21.9,21.5,00.0,30.6,23.9,08.5,0000.0,0000.86,0002.05,0000.72
2022-11-23 21:13:00,,0819.8,5.01,0.00,21.9,21.3,00.0,30.7,23.8,08.2,0000.0,0000.86,0001.84,0000.71
2022-11-23 21:14:00,,0819.7,5.01,0.00,21.9,21.2,00.0,30.7,23.7,08.7,0000.0,0000.85,0001.60,0000.70
2022-11-23 21:15:00,,0819.8,5.00,0.00,21.9,21.1,00.0,30.7,23.6,08.7,0000.0,0000.86,0001.63,0000.69
2022-11-23 21:16:00,,0819.8,5.00,0.00,21.9,21.0,00.0,30.7,23.7,08.7,0000.0,0000.84,0001.63,0000.67
2022-11-23 21:17:00,,0819.7,4.99,0.00,21.9,20.9,00.0,30.8,23.7,09.3,0000.0,0000.79,0001.53,0000.66
2022-11-23 21:18:00,,0819.6,5.00,0.00,21.9,20.9,00.0,30.8,23.7,09.2,0000.0,0000.76,0001.49,0000.65
2022-11-23 21:19:00,,0819.4,5.02,0.00,21.9,20.9,00.0,30.8,23.7,09.3,0000.0,0000.76,0001.49,0000.64
2022-11-23 21:20:00,,0819.5,5.00,0.00,21.9,20.8,00.0,30.8,23.7,09.3,0000.0,0000.77,0001.50,0000.64
2022-11-23 21:21:00,,0819.6,5.00,0.00,21.9,20.8,00.0,30.8,23.7,09.2,0000.0,0000.77,0001.50,0000.64
2022-11-23 21:22:00,,0819.6,4.99,0.00,21.9,20.8,00.0,30.8,23.7,09.3,0000.0,0000.76,0001.46,0000.63
2022-11-23 21:23:00,,0819.4,4.99,0.00,21.9,20.7,00.0,30.8,23.7,10.1,0000.0,0000.76,0001.30,0000.62
2022-11-23 21:24:00,,0819.3,5.00,0.00,21.9,20.7,00.0,30.8,23.8,09.7,0000.0,0000.75,0001.07,0000.61
2022-11-23 21:25:00,,0819.3,5.01,0.00,22.0,20.7,00.0,30.8,23.8,08.9,0000.0,0000.75,0001.06,0000.60
2022-11-23 21:26:00,,0819.4,5.00,0.00,22.0,20.7,00.0,30.8,23.8,09.3,0000.0,0000.76,0001.08,0000.60
2022-11-23 21:27:00,,0819.6,4.99,0.00,22.0,20.7,00.0,30.8,23.8,09.1,0000.0,0000.76,0001.08,0000.61
2022-11-23 21:28:00,,0819.6,5.00,0.00,22.0,20.7,00.0,30.8,23.8,09.3,0000.0,0000.77,0001.10,0000.61
2022-11-23 21:29:00,,0819.6,5.00,0.00,21.9,20.6,00.0,30.9,23.8,09.1,0000.0,0000.77,0001.35,0000.60
2022-11-23 21:30:00,,0819.6,5.01,0.00,21.9,20.6,00.0,30.9,23.8,09.3,0000.0,0000.80,0001.51,0000.60
2022-11-23 21:31:00,,0819.6,5.00,0.00,22.0,20.6,00.0,30.9,23.8,09.5,0000.0,0000.81,0001.53,0000.61
2022-11-23 21:32:00,,0819.7,5.00,0.00,22.0,20.6,00.0,30.9,23.8,09.3,0000.0,0000.80,0001.55,0000.60
2022-11-23 21:33:00,,0819.7,5.00,0.00,22.0,20.6,00.0,30.9,23.8,09.1,0000.0,0000.80,0001.57,0000.60
2022-11-23 21:34:00,,0819.9,5.00,0.00,21.9,20.6,00.0,30.9,23.8,09.0,0000.0,0000.80,0001.56,0000.61
2022-11-23 21:35:00,,0820.0,5.01,0.00,21.9,20.6,00.0,30.9,23.7,08.9,0000.0,0000.82,0001.58,0000.62
2022-11-23 21:36:00,,0820.0,5.01,0.00,21.9,20.6,00.0,30.9,23.6,08.9,0000.0,0000.82,0001.58,0000.63
2022-11-23 21:37:00,,0819.9,5.00,0.00,21.9,20.6,00.0,30.9,23.6,09.4,0000.0,0000.80,0001.62,0000.62
2022-11-23 21:38:00,,0820.0,5.00,0.00,21.9,20.5,00.0,30.9,23.6,08.8,0000.0,0000.80,0001.62,0000.62
2022-11-23 21:39:00,,0820.1,4.99,0.00,21.9,20.6,00.0,30.9,23.7,08.8,0000.0,0000.82,0001.66,0000.63
2022-11-23 21:40:00,,0820.1,5.00,0.00,21.9,20.6,00.0,30.9,23.6,09.0,0000.0,0000.84,0001.62,0000.64
2022-11-23 21:41:00,,0820.2,4.99,0.00,21.9,20.6,00.0,30.9,23.6,09.1,0000.0,0000.82,0001.77,0000.64
2022-11-23 21:42:00,,0820.1,5.01,0.00,21.9,20.6,00.0,30.9,23.7,09.2,0000.0,0000.84,0001.86,0000.65
2022-11-23 21:43:00,,0820.1,5.01,0.00,21.9,20.5,00.0,30.9,23.7,08.5,0000.0,0000.86,0001.86,0000.67
2022-11-23 21:44:00,,0820.2,5.00,0.00,21.9,20.6,00.0,30.9,23.7,08.5,0000.0,0000.86,0001.85,0000.68
2022-11-23 21:45:00,,0820.2,4.99,0.00,21.9,20.6,00.0,30.8,23.7,08.7,0000.0,0000.87,0001.85,0000.69
2022-11-23 21:46:00,,0820.3,5.00,0.00,21.9,20.5,00.0,30.8,23.6,08.6,0000.0,0000.89,0001.89,0000.69
2022-11-23 21:47:00,,0820.4,4.99,0.00,21.9,20.5,00.0,30.8,23.6,09.2,0000.0,0000.92,0001.98,0000.70
2022-11-23 21:48:00,,0820.3,5.01,0.00,21.9,20.5,00.0,30.8,23.6,09.2,0000.0,0000.93,0001.92,0000.70
2022-11-23 21:49:00,,0820.3,5.00,0.00,21.9,20.6,00.0,30.8,23.6,08.8,0000.0,0000.93,0001.96,0000.70
2022-11-23 21:50:00,,0820.4,5.00,0.00,21.9,20.6,00.0,30.8,23.6,08.5,0000.0,0000.92,0001.98,0000.69
2022-11-23 21:51:00,,0820.4,5.00,0.00,21.9,20.6,00.0,30.8,23.6,08.4,0000.0,0000.90,0001.79,0000.70
2022-11-23 21:52:00,,0820.5,5.00,0.00,21.9,20.6,00.0,30.8,23.6,08.6,0000.0,0000.89,0001.44,0000.70
2022-11-23 21:53:00,,0820.5,5.01,0.00,21.9,20.6,00.0,30.8,23.7,08.6,0000.0,0000.86,0001.35,0000.69
2022-11-23 21:54:00,,0820.6,5.00,0.00,21.9,20.6,00.0,30.8,23.7,08.9,0000.0,0000.84,0001.33,0000.67
2022-11-23 21:55:00,,0820.6,5.00,0.00,21.9,20.6,00.0,30.8,23.8,08.3,0000.0,0000.83,0001.32,0000.67
2022-11-23 21:56:00,,0820.6,4.99,0.00,21.9,20.6,00.0,30.8,23.8,08.4,0000.0,0000.83,0001.31,0000.67
2022-11-23 21:57:00,,0820.6,5.00,0.00,21.9,20.6,00.0,30.8,23.7,08.4,0000.0,0000.80,0001.27,0000.67
2022-11-23 21:58:00,,0820.6,5.01,0.00,21.9,20.6,00.0,30.8,23.7,08.4,0000.0,0000.77,0001.24,0000.66
2022-11-23 21:59:00,,0820.6,5.01,0.00,21.9,20.7,00.0,30.8,23.7,08.5,0000.0,0000.76,0001.28,0000.66
